Location: Gudip?du
(17.0263°N, 80.8301°E)
Time: 02:09:46
(UTC+00:00)

IRIDIUM 104 - Pass Details

Date: 03 August 2024
Orbit: 776 x 779 km, 86.4° (Epoch: 18 September)

Event Time Altitude Azimuth Distance (km) Brightness Sun altitude
Exits shadow 22:38:22 25° 178° (S) 1,520 5.6 -22.7°
Maximum altitude 22:41:28 86° 91° (E) 783 4.3 -22.0°
Drops below altitude 10° 22:46:41 10° 2° (N) 2,327 7.1 -20.9°
Sets 22:49:02 0° 1° (N) 3,256 7.9 -20.4°
